Location: Newark
(49.2191°N, 12.6671°E)
Time: 15:00:20
(UTC+00:00)

Transit 4A - Pass Details

Date: 30 January 2020
Orbit: 872 x 973 km, 66.8° (Epoch: 22 February)

Event Time Altitude Azimuth Distance (km) Brightness Sun altitude
Rises 08:42:01 0° 299° (WNW) 3,496 10.3 14.2°
Reaches altitude 10° 08:45:56 10° 325° (NW) 2,543 9.6 14.6°
Maximum altitude 08:48:54 14° 355° (N) 2,264 9.5 14.9°
Drops below altitude 10° 08:51:51 10° 26° (NNE) 2,532 10.0 15.2°
Sets 08:55:44 0° 52° (NE) 3,470 10.9 15.5°
